EW1179 Weather Reports


Display with metric or nautical units.
time (UTC)temp
F
wind
direction
speed
MPH
gust
MPH
rain 1hr
in
rain 24hr
in
rain mn
in
humidity
%
barometer
mb
20260905040059 64 11 0.0 0.0 0.00 0.00 0.00 77 1011.3
20260905034600 64 355 0.0 0.0 0.00 0.00 0.00 76 1011.1
20260905033049 65 59 0.0 0.0 0.00 0.00 0.00 75 1010.7
20260905031550 66 107 0.0 0.0 0.00 0.00 0.00 74 1010.5
20260905030047 66 107 0.0 0.0 0.00 0.00 0.00 72 1010.5
20260905024557 66 140 1.0 4.0 0.00 0.00 0.00 71 1010.5
20260905023046 67 234 0.0 5.0 0.00 0.00 0.00 69 1010.3
20260905021546 67 238 0.0 0.0 0.00 0.00 0.00 70 1010.3
20260905020053 67 260 0.0 5.0 0.00 0.00 0.00 68 1010.2
20260905014545 68 219 0.0 4.0 0.00 0.00 0.00 69 1010.1
20260905013045 69 228 0.0 6.0 0.00 0.00 0.00 69 1010.1
20260905011544 70 261 1.0 8.0 0.00 0.00 0.00 68 1010.1
20260905010049 71 232 0.0 7.0 0.00 0.00 0.00 66 1010.1
20260905004542 71 261 0.0 6.0 0.00 0.00 0.00 64 1010.1
20260905003043 72 266 2.0 6.0 0.00 0.00 0.00 63 1010.0
20260905001543 73 255 2.0 10.0 0.00 0.00 0.00 62 1010.0
20260905000042 73 280 1.0 8.0 0.00 0.00 0.00 60 1009.9
20260904234540 74 267 1.0 10.0 0.00 0.00 0.00 59 1009.8
20260904233039 75 242 1.0 7.0 0.00 0.00 0.00 58 1009.8
20260904231554 75 237 3.0 12.0 0.00 0.00 0.00 57 1009.9
20260904230037 76 206 1.0 11.0 0.00 0.00 0.00 56 1009.9
20260904224536 77 154 0.0 10.0 0.00 0.00 0.00 56 1010.1
20260904223034 78 226 0.0 5.0 0.00 0.00 0.00 52 1010.1
20260904221537 79 182 2.0 8.0 0.00 0.00 0.00 52 1010.0
20260904220032 78 236 1.0 7.0 0.00 0.00 0.00 53 1010.2
20260904214531 78 220 2.0 12.0 0.00 0.00 0.00 53 1010.2
20260904213030 80 196 0.0 6.0 0.00 0.00 0.00 52 1010.3
20260904211529 80 179 0.0 5.0 0.00 0.00 0.00 51 1010.4
20260904210034 80 210 2.0 8.0 0.00 0.00 0.00 50 1010.4
20260904204528 81 228 0.0 6.0 0.00 0.00 0.00 49 1010.4
20260904203024 80 205 0.0 5.0 0.00 0.00 0.00 50 1010.4
20260904201522 79 215 0.0 3.0 0.00 0.00 0.00 51 1010.6
20260904200019 77 100 0.0 3.0 0.00 0.00 0.00 54 1010.6
20260904194514 76 38 0.0 1.0 0.00 0.00 0.00 55 1010.8
20260904193012 75 221 0.0 3.0 0.00 0.00 0.00 56 1011.0
20260904191509 74 229 0.0 3.0 0.00 0.00 0.00 58 1011.2
20260904190008 74 53 0.0 1.0 0.00 0.00 0.00 60 1011.4
20260904184507 73 123 0.0 3.0 0.00 0.00 0.00 62 1011.4
20260904183005 73 72 0.0 4.0 0.00 0.00 0.00 64 1011.5
20260904181504 73 215 0.0 0.0 0.00 0.00 0.00 64 1011.6
20260904180004 73 269 0.0 4.0 0.00 0.00 0.00 64 1011.7
20260904174502 74 196 0.0 2.0 0.00 0.00 0.00 63 1011.7
20260904173106 73 97 0.0 2.0 0.00 0.00 0.00 66 1011.6
20260904171555 71 299 0.0 4.0 0.00 0.00 0.00 69 1011.4
20260904170051 69 200 0.0 1.0 0.00 0.00 0.00 73 1011.4
20260904164545 67 188 0.0 1.0 0.00 0.00 0.00 78 1011.5
20260904163042 65 198 0.0 1.0 0.00 0.00 0.00 82 1011.5
20260904161537 63 128 0.0 3.0 0.00 0.00 0.00 85 1011.5
20260904160044 62 355 0.0 0.0 0.00 0.00 0.00 87 1011.5
20260904154530 62 318 0.0 1.0 0.00 0.00 0.00 88 1011.6
20260904153028 61 83 0.0 0.0 0.00 0.00 0.00 89 1011.6
20260904151524 61 133 0.0 0.0 0.00 0.00 0.00 90 1011.5
20260904150022 61 75 0.0 0.0 0.00 0.00 0.00 90 1011.4
20260904144519 60 252 0.0 0.0 0.00 0.00 0.00 90 1011.3
20260904143027 60 202 0.0 0.0 0.00 0.00 0.00 90 1011.4
20260904141512 60 193 0.0 0.0 0.00 0.00 0.00 91 1011.2
20260904140011 60 233 0.0 0.0 0.00 0.00 0.00 91 1011.1
20260904134515 60 233 0.0 0.0 0.00 0.00 0.00 91 1011.0
20260904133012 59 41 0.0 0.0 0.00 0.00 0.00 91 1010.9
20260904131506 59 174 0.0 0.0 0.00 0.00 0.00 91 1010.8
20260904130004 59 194 0.0 0.0 0.00 0.00 0.00 91 1010.7
20260904124502 58 257 0.0 0.0 0.00 0.00 0.00 90 1010.6
20260904123002 58 245 0.0 0.0 0.00 0.00 0.00 89 1010.6
20260904121502 58 64 0.0 0.0 0.00 0.00 0.00 89 1010.6
20260904120100 59 78 0.0 0.0 0.00 0.00 0.00 89 1010.6
20260904114603 59 78 0.0 0.0 0.00 0.00 0.00 89 1010.6
20260904113058 59 90 0.0 0.0 0.00 0.00 0.00 89 1010.6
20260904111557 59 135 0.0 0.0 0.00 0.00 0.00 89 1010.6
20260904110058 59 185 0.0 0.0 0.00 0.00 0.00 89 1010.4
20260904104556 60 294 0.0 0.0 0.00 0.00 0.00 89 1010.5
20260904103055 60 267 0.0 1.0 0.00 0.00 0.00 89 1010.5
20260904101554 60 215 0.0 0.0 0.00 0.00 0.00 89 1010.5
20260904094600 60 236 0.0 0.0 0.00 0.00 0.00 89 1010.4
20260904093053 59 60 0.0 0.0 0.00 0.00 0.00 89 1010.3
20260904091552 59 288 0.0 0.0 0.00 0.00 0.00 88 1010.3
20260904090103 59 142 0.0 0.0 0.00 0.00 0.00 88 1010.4
20260904084556 59 63 0.0 0.0 0.00 0.00 0.00 88 1010.5
20260904083123 60 215 0.0 5.0 0.00 0.00 0.00 88 1010.5
20260904081548 59 178 0.0 3.0 0.00 0.00 0.00 88 1010.6
20260904080047 60 221 0.0 0.0 0.00 0.00 0.00 88 1010.6
20260904074549 60 202 0.0 3.0 0.00 0.00 0.00 88 1010.6
20260904073048 60 248 0.0 0.0 0.00 0.00 0.00 88 1010.6
20260904071601 60 218 0.0 3.0 0.00 0.00 0.00 87 1010.7
20260904070108 60 287 0.0 5.0 0.00 0.00 0.00 87 1010.6
20260904064542 60 184 0.0 5.0 0.00 0.00 0.00 86 1010.7
20260904063048 60 258 0.0 6.0 0.00 0.00 0.00 86 1010.5
20260904061541 59 167 0.0 4.0 0.00 0.00 0.00 85 1010.5
20260904060041 59 129 0.0 0.0 0.00 0.00 0.00 85 1010.4
20260904054547 59 290 0.0 7.0 0.00 0.00 0.00 85 1010.5
20260904053054 60 277 0.0 4.0 0.00 0.00 0.00 83 1010.5
20260904051543 60 232 0.0 3.0 0.00 0.00 0.00 83 1010.6
20260904050041 60 240 1.0 6.0 0.00 0.00 0.00 81 1010.6
20260904044539 61 177 0.0 0.0 0.00 0.00 0.00 79 1010.8
20260904043044 61 219 0.0 0.0 0.00 0.00 0.00 76 1010.6
20260904041538 62 221 0.0 3.0 0.00 0.00 0.00 73 1010.5